Location: Chervonnoye
(48.6000°N, 34.4000°E)
Time: 06:00:07
(UTC+00:00)

YAOGAN 6 - Pass Details

Date: 23 November 2020
Orbit: 465 x 502 km, 97.0° (Epoch: 18 January)

Event Time Altitude Azimuth Distance (km) Brightness Sun altitude
Rises 15:21:24 0° 188° (S) 2,582 6.6 -14.0°
Reaches altitude 10° 15:23:37 10° 198° (SSW) 1,700 5.8 -14.4°
Maximum altitude 15:26:57 33° 264° (W) 862 4.6 -14.9°
Drops below altitude 10° 15:30:17 10° 329° (NNW) 1,699 5.5 -15.5°
Sets 15:32:31 0° 340° (NNW) 2,580 6.3 -15.8°
